sat.trackr.live / text

‹ back to catalog

TRANSPORTER-12 OBJECT BT

NORAD 62674 · 2025-009BT

PAYLOAD ACTIVE UNKNOWN

§ Identity

Operator
Country
TBD
Launch date
2025-01-14
Launch site
AFWTR
Launch vehicle
Mass (kg)
RCS (m²)

External: N2YO · Heavens-Above · Gunter

§ Orbital elements

Epoch: 2026-09-22T19:49:26.659200Z

Period
94.00 min
Inclination
97.4003°
Eccentricity
0.0003689
Mean motion
15.31981172 rev/d
Perigee alt
467.4 km
Apogee alt
472.4 km
Semi-major
6,848.0 km
B*
2.6298e-4
RAAN
348.0843°
Arg perigee
342.5175°
Mean anomaly
17.5939°
Rev number
15,150

§ Raw data

TRANSPORTER-12 OBJECT BT1 62674U 25009BT  26265.82600300  .00008044  00000+0  26298-3 0  99962 62674  97.4003 348.0843 0003689 342.5175  17.5939 15.31981172151507

JSON: /api/v1/satellites/62674 · /tle

For live sub-satellite position, see the globe view (requires WebGL).

§ Visibility from observer

Set your observer location to see the next 7 days of passes ≥ 10°. The values pass through the URL so the page stays shareable.

No JS? Fill the form by hand. The geolocation button needs JavaScript.